Ontario, OR

10:41 AM MDT on March 23, 2017 (GMT -0600)
Ontario Municipal

Weather History for KONO - May, 2014

Change the Weather History Date:

Monday, May 5, 2014

  Actual Average Record
Temperature  
Mean Temperature 55 °F 56 °F  
Max Temperature 64 °F 71 °F 95 °F (1966)
Min Temperature 46 °F 41 °F 29 °F (1986)
Degree Days  
Heating Degree Days 10 10  
Month to date heating degree days 23 51  
Since 1 July heating degree days 5770 5792  
Cooling Degree Days 0 0  
Month to date cooling degree days 0 0  
Year to date cooling degree days 0 1  
Growing Degree Days 5 (Base 50)    
Moisture  
Dew Point 38 °F    
Average Humidity 49    
Maximum Humidity 66    
Minimum Humidity 32    
Precipitation  
Precipitation 0.01 in 0.03 in 1.07 in (2005)
Month to date precipitation 0.01 0.18  
Year to date precipitation 4.32 3.97  
Sea Level Pressure  
Sea Level Pressure 29.89 in    
Wind  
Wind Speed 10 mph (West)    
Max Wind Speed 24 mph    
Max Gust Speed 28 mph    
Visibility 10 miles    
Events Rain    
T = Trace of Precipitation, MM = Missing Value Source: NWS Daily Summary

Daily Weather History Graph

Daily Weather History Graph

Search for Another Location

Airport or City:

Trip Planner

Search our weather history database for the weather conditions in past years. The results will help you decide how hot, cold, wet, or windy it might be!

Date:

Astronomy

May. 05, 2014 Rise Set
Actual Time 6:33 AM MDT 8:56 PM MDT
Civil Twilight 6:01 AM MDT 9:28 PM MDT
Nautical Twilight 5:21 AM MDT 10:08 PM MDT
Astronomical Twilight 4:37 AM MDT 10:53 PM MDT
Moon 11:58 AM MDT (5/5) 1:42 AM MDT (5/5)
Length of Visible Light 15h 26m
Length of Day
14h 22m
Waxing Crescent, 37% of the Moon is Illuminated
May 5
Waxing Crescent
May 6
First Quarter
May 14
Full
May 21
Last Quarter
May 28
New

Hourly Weather History & Observations

Time (MDT) Temp. Windchill Dew Point Humidity Pressure Visibility Wind Dir Wind Speed Gust Speed Precip Events Conditions
12:53 AM 51.1 °F - 39.0 °F 63% 29.86 in 10.0 mi West 4.6 mph - N/A   Mostly Cloudy
1:53 AM 54.0 °F - 37.9 °F 55% 29.86 in 10.0 mi WNW 12.7 mph - N/A   Overcast
2:53 AM 55.0 °F - 37.9 °F 53% 29.88 in 10.0 mi WNW 13.8 mph - N/A   Overcast
3:53 AM 54.0 °F - 37.9 °F 55% 29.88 in 10.0 mi WNW 13.8 mph - N/A   Overcast
4:53 AM 53.1 °F - 37.0 °F 55% 29.89 in 10.0 mi West 11.5 mph - N/A   Mostly Cloudy
5:53 AM 52.0 °F - 37.9 °F 59% 29.90 in 10.0 mi WSW 6.9 mph - N/A   Overcast
6:53 AM 50.0 °F - 39.0 °F 66% 29.91 in 10.0 mi WSW 5.8 mph - N/A   Overcast
7:53 AM 51.1 °F - 39.9 °F 66% 29.91 in 10.0 mi WSW 6.9 mph - N/A   Overcast
8:53 AM 52.0 °F - 39.9 °F 63% 29.92 in 10.0 mi WSW 6.9 mph - N/A   Overcast
9:53 AM 55.0 °F - 37.9 °F 53% 29.93 in 10.0 mi WSW 5.8 mph - N/A   Overcast
10:53 AM 55.9 °F - 39.0 °F 53% 29.93 in 10.0 mi WSW 8.1 mph - 0.00 in   Overcast
12:53 PM 57.9 °F - 39.9 °F 51% 29.92 in 10.0 mi SSE 10.4 mph - N/A   Overcast
1:53 PM 61.0 °F - 39.9 °F 46% 29.89 in 10.0 mi South 10.4 mph - N/A   Scattered Clouds
2:53 PM 62.1 °F - 37.9 °F 41% 29.87 in 10.0 mi ESE 6.9 mph - N/A   Partly Cloudy
3:53 PM 62.1 °F - 32.0 °F 32% 29.86 in 10.0 mi Calm Calm - N/A   Scattered Clouds
4:53 PM 62.1 °F - 34.0 °F 35% 29.85 in 10.0 mi SW 4.6 mph - N/A   Overcast
5:53 PM 55.0 °F - 44.1 °F 67% 29.87 in 10.0 mi South 13.8 mph - 0.00 in Rain Light Rain
6:53 PM 57.9 °F - 39.9 °F 51% 29.87 in 10.0 mi North - - 0.01 in   Overcast
7:53 PM 55.9 °F - 36.0 °F 47% 29.86 in 10.0 mi NW 19.6 mph 24.2 mph N/A   Mostly Cloudy
8:53 PM 54.0 °F - 35.1 °F 49% 29.88 in 10.0 mi NW 19.6 mph - N/A   Mostly Cloudy
10:53 PM 48.9 °F - 35.1 °F 59% 29.89 in 10.0 mi NW 10.4 mph - N/A   Clear
11:53 PM 46.0 °F 41.4 °F 35.1 °F 66% 29.89 in 10.0 mi NW 9.2 mph - N/A   Clear